Hourly Weather Primorsko

Today, 5 July, Sunday

Time Temperature Precipitation Wind Pressure Humidity
00:00 +24°C° 0 mm 1 mps 757 mmHg 73%
01:00 +24°C° 0 mm 2 mps 757 mmHg 74%
02:00 +23°C° 0 mm 2 mps 757 mmHg 76%
03:00 +23°C° 0 mm 2 mps 757 mmHg 81%
04:00 +22°C° 0 mm 3 mps 757 mmHg 86%
05:00 +22°C° 0 mm 3 mps 756 mmHg 90%
06:00 +24°C° 0 mm 3 mps 757 mmHg 86%
07:00 +26°C° 0 mm 4 mps 757 mmHg 81%
08:00 +28°C° 0 mm 4 mps 757 mmHg 74%
09:00 +29°C° 0 mm 4 mps 757 mmHg 69%
10:00 +30°C° 0 mm 4 mps 757 mmHg 64%
11:00 +32°C° 0 mm 4 mps 757 mmHg 58%
12:00 +32°C° 0.1 mm 4 mps 757 mmHg 56%
13:00 +33°C° 0.1 mm 4 mps 757 mmHg 55%
14:00 +33°C° 0.1 mm 4 mps 756 mmHg 53%
15:00 +32°C° 0 mm 4 mps 756 mmHg 56%
16:00 +32°C° 0 mm 4 mps 756 mmHg 58%
17:00 +32°C° 0 mm 4 mps 756 mmHg 61%
18:00 +29°C° 0 mm 3 mps 756 mmHg 71%
19:00 +27°C° 0 mm 3 mps 756 mmHg 81%
20:00 +25°C° 0 mm 2 mps 756 mmHg 91%
21:00 +25°C° 0 mm 2 mps 756 mmHg 91%
22:00 +24°C° 0 mm 2 mps 756 mmHg 92%
23:00 +24°C° 0 mm 2 mps 756 mmHg 92%

Tomorrow, 6 July, Monday

Time Temperature Precipitation Wind Pressure Humidity
00:00 +24°C° 0 mm 2 mps 756 mmHg 92%
01:00 +24°C° 0 mm 2 mps 756 mmHg 92%
02:00 +24°C° 0 mm 3 mps 755 mmHg 93%
03:00 +22°C° 0 mm 3 mps 755 mmHg 93%
04:00 +22°C° 0 mm 4 mps 755 mmHg 94%
05:00 +22°C° 0 mm 4 mps 754 mmHg 94%
06:00 +23°C° 0 mm 5 mps 754 mmHg 90%
07:00 +26°C° 0 mm 5 mps 754 mmHg 87%
08:00 +27°C° 0 mm 6 mps 754 mmHg 83%
09:00 +28°C° 0 mm 6 mps 754 mmHg 79%
10:00 +29°C° 0 mm 6 mps 754 mmHg 75%
11:00 +30°C° 0 mm 6 mps 754 mmHg 71%
12:00 +30°C° 0 mm 6 mps 753 mmHg 69%
13:00 +32°C° 0 mm 6 mps 753 mmHg 66%
14:00 +32°C° 0 mm 6 mps 753 mmHg 64%
15:00 +32°C° 0 mm 6 mps 752 mmHg 67%
16:00 +30°C° 0 mm 5 mps 752 mmHg 70%
17:00 +30°C° 0 mm 5 mps 752 mmHg 73%
18:00 +28°C° 0 mm 4 mps 752 mmHg 81%
19:00 +27°C° 0 mm 3 mps 752 mmHg 89%
20:00 +25°C° 0 mm 2 mps 752 mmHg 96%
21:00 +25°C° 0 mm 2 mps 752 mmHg 97%
22:00 +25°C° 0 mm 3 mps 752 mmHg 97%
23:00 +25°C° 0 mm 3 mps 752 mmHg 97%

Day after tomorrow, 7 July, Tuesday

Time Temperature Precipitation Wind Pressure Humidity
00:00 +25°C° 0 mm 3 mps 752 mmHg 97%
01:00 +25°C° 0 mm 3 mps 751 mmHg 97%
02:00 +25°C° 0 mm 3 mps 751 mmHg 97%
03:00 +25°C° 0 mm 3 mps 751 mmHg 97%
04:00 +24°C° 0 mm 3 mps 751 mmHg 97%
05:00 +24°C° 0 mm 3 mps 751 mmHg 97%
06:00 +25°C° 0 mm 3 mps 751 mmHg 91%
07:00 +26°C° 0 mm 3 mps 751 mmHg 86%
08:00 +27°C° 0 mm 4 mps 752 mmHg 80%
09:00 +29°C° 0 mm 4 mps 752 mmHg 73%
10:00 +30°C° 0 mm 4 mps 752 mmHg 67%
11:00 +32°C° 0 mm 4 mps 752 mmHg 60%
12:00 +33°C° 0 mm 3 mps 752 mmHg 57%
13:00 +33°C° 0 mm 3 mps 752 mmHg 53%
14:00 +34°C° 0 mm 3 mps 751 mmHg 50%
15:00 +34°C° 0.1 mm 2 mps 751 mmHg 51%
16:00 +32°C° 0.1 mm 2 mps 751 mmHg 53%
17:00 +32°C° 0.1 mm 2 mps 751 mmHg 54%
18:00 +30°C° 0.1 mm 3 mps 752 mmHg 61%
19:00 +28°C° 0.1 mm 5 mps 752 mmHg 68%
20:00 +26°C° 0.1 mm 6 mps 753 mmHg 74%
21:00 +23°C° 0.3 mm 6 mps 754 mmHg 78%
22:00 +22°C° 0.3 mm 7 mps 754 mmHg 82%
23:00 +20°C° 0.3 mm 7 mps 755 mmHg 85%

8 July, Wednesday

Time Temperature Precipitation Wind Pressure Humidity
00:00 +20°C° 0 mm 7 mps 755 mmHg 83%
01:00 +18°C° 0 mm 7 mps 755 mmHg 82%
02:00 +19°C° 0 mm 6 mps 756 mmHg 80%
03:00 +19°C° 0.1 mm 6 mps 756 mmHg 80%
04:00 +17°C° 0.1 mm 7 mps 756 mmHg 81%
05:00 +17°C° 0.1 mm 7 mps 756 mmHg 81%
06:00 +17°C° 0.1 mm 7 mps 757 mmHg 78%
07:00 +18°C° 0.1 mm 7 mps 757 mmHg 75%
08:00 +20°C° 0.1 mm 7 mps 757 mmHg 73%
09:00 +21°C° 0.1 mm 7 mps 758 mmHg 69%
10:00 +21°C° 0.1 mm 7 mps 758 mmHg 66%
11:00 +22°C° 0.1 mm 7 mps 758 mmHg 62%
12:00 +22°C° 0.2 mm 7 mps 759 mmHg 67%
13:00 +21°C° 0.2 mm 7 mps 759 mmHg 71%
14:00 +21°C° 0.2 mm 7 mps 759 mmHg 76%
15:00 +21°C° 0.2 mm 7 mps 759 mmHg 75%
16:00 +21°C° 0.2 mm 7 mps 759 mmHg 74%
17:00 +22°C° 0.2 mm 6 mps 759 mmHg 73%
18:00 +21°C° 0 mm 6 mps 759 mmHg 75%
19:00 +20°C° 0 mm 6 mps 759 mmHg 77%
20:00 +19°C° 0 mm 5 mps 760 mmHg 79%
21:00 +17°C° 0 mm 5 mps 760 mmHg 82%
22:00 +17°C° 0 mm 5 mps 760 mmHg 84%
23:00 +16°C° 0 mm 5 mps 761 mmHg 87%

9 July, Thursday

Time Temperature Precipitation Wind Pressure Humidity
00:00 +16°C° 0 mm 5 mps 761 mmHg 86%
01:00 +16°C° 0 mm 5 mps 760 mmHg 85%
02:00 +16°C° 0 mm 5 mps 760 mmHg 84%
03:00 +16°C° 0 mm 5 mps 760 mmHg 84%
04:00 +16°C° 0 mm 5 mps 760 mmHg 85%
05:00 +15°C° 0 mm 6 mps 760 mmHg 85%
06:00 +17°C° 0 mm 6 mps 760 mmHg 80%
07:00 +20°C° 0 mm 7 mps 761 mmHg 75%
08:00 +21°C° 0 mm 7 mps 761 mmHg 69%
09:00 +22°C° 0 mm 7 mps 761 mmHg 65%
10:00 +24°C° 0 mm 7 mps 761 mmHg 60%
11:00 +26°C° 0 mm 8 mps 761 mmHg 56%
12:00 +27°C° 0 mm 7 mps 761 mmHg 54%
13:00 +27°C° 0 mm 7 mps 761 mmHg 51%
14:00 +28°C° 0 mm 7 mps 761 mmHg 49%
15:00 +28°C° 0 mm 7 mps 761 mmHg 50%
16:00 +27°C° 0 mm 6 mps 761 mmHg 51%
17:00 +27°C° 0 mm 6 mps 761 mmHg 51%
18:00 +26°C° 0 mm 5 mps 761 mmHg 57%
19:00 +23°C° 0 mm 5 mps 761 mmHg 63%
20:00 +22°C° 0 mm 4 mps 761 mmHg 69%
21:00 +21°C° 0 mm 4 mps 761 mmHg 71%
22:00 +21°C° 0 mm 4 mps 762 mmHg 74%
23:00 +20°C° 0 mm 4 mps 762 mmHg 76%

10 July, Friday

Time Temperature Precipitation Wind Pressure Humidity
00:00 +20°C° 0 mm 4 mps 762 mmHg 77%
01:00 +20°C° 0 mm 4 mps 762 mmHg 78%
02:00 +19°C° 0 mm 4 mps 762 mmHg 79%
03:00 +19°C° 0 mm 4 mps 762 mmHg 79%
04:00 +19°C° 0 mm 5 mps 762 mmHg 80%
05:00 +19°C° 0 mm 5 mps 762 mmHg 81%
06:00 +21°C° 0 mm 5 mps 762 mmHg 75%
07:00 +22°C° 0 mm 6 mps 762 mmHg 69%
08:00 +24°C° 0 mm 6 mps 762 mmHg 63%
09:00 +26°C° 0 mm 7 mps 762 mmHg 60%
10:00 +27°C° 0 mm 7 mps 762 mmHg 57%
11:00 +28°C° 0 mm 7 mps 762 mmHg 55%
12:00 +28°C° 0 mm 7 mps 762 mmHg 55%
13:00 +28°C° 0 mm 7 mps 762 mmHg 55%
14:00 +28°C° 0 mm 8 mps 762 mmHg 54%
15:00 +28°C° 0 mm 7 mps 762 mmHg 56%
16:00 +27°C° 0 mm 7 mps 762 mmHg 58%
17:00 +27°C° 0 mm 7 mps 762 mmHg 60%
18:00 +26°C° 0 mm 6 mps 762 mmHg 66%
19:00 +23°C° 0 mm 5 mps 762 mmHg 72%
20:00 +22°C° 0 mm 5 mps 762 mmHg 78%
21:00 +21°C° 0 mm 5 mps 762 mmHg 79%
22:00 +21°C° 0 mm 4 mps 762 mmHg 80%
23:00 +21°C° 0 mm 4 mps 762 mmHg 81%
Show more